Location: Newark
(44.3681°N, 100.3364°W)
Time: 01:38:16
(UTC+00:00)

Vanguard 1 - Pass Details

Date: 27 February 2020
Orbit: 649 x 3833 km, 34.2° (Epoch: 06 April)

Event Time Altitude Azimuth Distance (km) Brightness Sun altitude
Rises 16:33:14 0° 265° (W) 7,935 14.4 28.4°
Reaches altitude 10° 16:39:03 10° 262° (W) 6,750 14.1 29.1°
Maximum altitude 16:59:07 57° 192° (SSW) 3,027 13.5 31.2°
Drops below altitude 10° 17:10:49 10° 118° (ESE) 4,149 14.3 32.3°
Sets 17:13:29 0° 113° (ESE) 4,814 14.3 32.6°
